Wind_Speed
9 9 11 12 14 15 16 17 17 17 17 18 19 22 24 25 29 32 35 40 44 48 51 54 56 59 63 67 71 74 77 81 83 86 88 88 85 81 80 79 77 73 69 63
10 10 12 13 14 14 15 16 16 17 18 19 21 23 26 28 31 35 38 43 47 50 53 55 57 61 65 69 72 75 78 81 84 87 89 87 82 79 78 76 74 70 65 62
10 11 12 12 13 13 14 15 18 19 20 22 23 23 28 31 34 38 42 45 48 51 53 55 58 63 67 70 73 76 79 83 86 88 88 83 80 78 77 74 70 66 62 61
9 10 11 12 12 13 15 17 20 22 23 24 27 26 30 33 37 40 43 46 48 51 53 56 60 64 68 71 74 76 80 84 87 88 85 82 79 77 76 73 68 64 62 62
8 9 11 12 13 15 17 20 22 24 25 26 29 30 32 36 39 41 44 46 48 51 54 56 61 65 69 72 74 77 81 85 86 86 83 80 79 78 75 71 66 62 62 65
6 8 10 12 15 18 20 22 23 24 26 28 30 32 35 37 38 40 43 46 49 52 54 57 62 66 69 72 75 78 82 84 85 84 81 79 78 76 74 69 65 64 65 69
5 8 10 14 17 20 23 25 26 27 28 29 31 32 34 35 37 40 44 47 50 52 54 58 62 67 70 73 75 78 81 83 84 82 79 78 77 75 73 70 67 67 70 74
6 8 11 14 17 20 23 26 29 31 31 30 30 31 32 35 38 42 45 47 50 52 55 59 63 67 70 73 75 78 81 83 82 80 77 76 75 74 72 70 70 72 76 78
7 9 11 14 17 21 24 27 29 32 33 32 32 33 34 38 40 43 46 48 50 52 55 59 63 68 71 73 75 78 81 82 80 78 76 74 73 72 71 70 71 74 78 79
7 9 11 14 18 22 25 29 31 34 37 38 36 37 39 40 42 44 46 48 51 52 55 59 64 68 71 73 75 78 80 80 79 76 74 72 72 71 71 70 72 75 78 77
7 9 11 14 18 22 26 29 31 33 36 39 40 40 42 42 44 45 47 49 51 53 55 59 64 68 71 73 75 78 79 79 77 74 72 71 70 70 70 71 72 75 77 75
6 8 11 14 18 23 26 29 32 34 36 38 41 43 45 46 46 47 48 50 52 53 56 60 64 68 70 72 74 77 78 77 75 72 70 69 69 69 69 70 72 75 76 74
4 7 9 13 18 22 25 29 32 34 37 40 43 44 48 49 50 50 50 51 53 54 56 60 64 68 70 72 74 76 77 76 73 70 68 68 68 68 69 69 71 73 75 73
1 4 8 11 15 20 24 28 32 35 38 40 43 46 50 52 53 53 53 53 54 54 57 60 64 68 70 71 73 75 76 74 71 69 67 66 66 67 68 69 70 72 74 73
3 4 7 11 15 19 23 27 31 34 38 41 45 48 52 55 56 56 56 55 55 55 57 60 64 68 69 71 72 74 74 72 70 67 65 64 64 66 67 68 69 71 73 73
7 7 9 12 15 18 21 25 29 33 37 41 46 49 53 57 58 59 58 58 56 56 58 61 64 67 69 70 71 73 73 71 69 66 64 62 62 64 66 67 68 69 71 72
11 10 11 13 15 17 20 24 27 32 37 41 46 49 54 57 60 61 61 60 58 58 59 61 64 67 68 69 70 71 71 70 68 65 63 61 61 62 65 66 67 67 69 71
15 14 14 15 17 20 23 25 28 32 36 41 45 49 53 57 61 64 64 63 61 60 60 61 64 67 68 68 69 70 70 69 67 64 62 60 59 61 63 64 65 66 67 68
19 18 18 19 20 21 24 28 31 34 36 41 45 49 53 57 61 64 66 65 63 61 60 62 64 66 67 67 68 69 69 68 66 63 60 59 58 59 60 62 64 64 65 66
23 22 22 23 25 26 28 30 32 37 40 44 47 51 54 58 61 64 67 67 65 62 61 62 64 66 66 66 67 67 68 68 66 62 59 57 57 58 59 60 62 63 63 64
27 26 25 25 27 29 30 33 35 37 41 44 47 51 54 57 60 64 67 68 67 64 62 62 63 65 66 65 65 66 67 66 65 62 59 56 56 56 57 58 59 61 62 63
32 30 28 28 29 32 32 34 37 38 41 43 47 50 53 57 60 64 67 68 68 66 63 62 63 64 65 64 64 65 66 66 64 61 58 56 55 54 55 56 57 58 60 60
35 34 33 30 30 35 35 36 38 40 42 44 47 50 54 57 60 64 67 69 69 67 64 62 62 63 64 63 63 63 64 65 63 61 58 56 54 53 53 54 54 55 57 58
38 37 36 34 31 36 37 38 41 43 44 46 47 50 54 57 60 63 66 68 69 68 65 62 62 62 63 62 61 62 63 63 62 59 57 55 53 53 52 52 52 53 54 55
41 39 38 37 36 38 37 40 43 45 47 48 48 50 53 57 60 62 65 67 68 68 66 63 61 61 62 61 60 61 61 62 61 59 56 54 53 52 51 51 52 52 53 55
43 40 41 40 41 43 40 41 45 47 49 49 50 51 53 56 59 62 64 66 67 68 66 63 60 60 60 60 59 59 59 60 60 58 56 54 52 50 50 50 51 52 52 53
Wind_Direction
341 338 337 337 334 331 330 327 323 317 313 313 316 317 317 318 317 318 320 322 323 325 328 330 332 333 333 332 331 331 331 329 327 326 325 325 325 324 323 322 321 318 315 311
339 341 339 338 335 331 326 320 317 314 313 315 318 319 318 318 318 320 321 322 324 327 330 333 334 334 334 333 333 332 331 329 328 328 327 327 327 326 326 324 323 319 315 311
343 341 340 338 336 330 326 322 321 321 321 320 321 322 318 319 320 322 323 324 327 330 333 335 335 336 335 334 334 332 331 330 330 329 329 329 329 328 327 326 324 320 315 311
344 343 342 341 339 335 334 332 330 328 327 326 325 325 320 322 323 324 326 328 330 333 335 336 336 337 336 335 334 333 332 332 331 331 331 331 331 330 329 328 326 322 318 315
348 347 347 346 344 342 340 337 334 331 330 328 324 325 325 326 327 328 329 331 334 335 336 337 337 338 337 336 335 335 334 333 332 332 333 333 333 333 332 331 329 325 322 318
356 357 357 354 351 346 343 340 336 333 333 332 332 332 329 330 331 331 333 336 337 336 336 337 338 338 338 337 337 336 335 334 334 334 335 335 335 335 335 333 331 329 326 324
17 14 10 3 357 353 348 346 344 344 344 342 339 337 333 335 336 336 338 339 337 336 336 338 339 339 338 338 338 337 336 336 336 336 337 337 338 338 337 336 335 334 333 330
44 29 19 12 6 1 357 354 352 350 350 350 346 342 340 342 342 341 341 339 337 336 337 339 340 340 340 340 339 339 338 337 338 338 339 339 340 340 340 340 340 339 339 338
58 43 30 21 14 9 6 3 359 354 353 354 354 347 348 348 346 344 342 340 338 337 338 339 340 341 341 341 340 340 339 339 340 340 341 342 343 343 344 344 344 344 344 343
67 52 37 28 21 16 12 9 6 2 358 357 359 352 353 349 347 346 344 342 339 338 338 340 342 342 342 342 342 341 341 341 342 343 343 345 346 347 347 348 348 349 349 348
73 58 43 32 25 20 16 13 10 8 4 360 0 356 354 351 348 347 345 343 340 339 339 342 343 343 343 343 343 343 343 343 344 345 345 347 348 350 351 351 352 353 353 352
74 55 44 34 25 20 17 15 12 11 9 4 2 358 356 354 351 348 346 344 342 341 342 343 344 344 345 345 345 344 344 345 346 347 348 349 351 353 354 355 356 357 357 357
72 49 37 29 23 18 16 14 13 12 10 7 4 2 357 357 353 350 347 345 343 342 343 344 345 346 346 346 346 346 346 346 347 349 350 351 353 355 356 358 359 0 1 1
39 27 20 18 17 13 12 11 11 11 10 8 4 2 0 357 355 353 350 347 344 343 344 345 346 347 347 348 348 348 348 348 349 350 352 353 355 357 359 0 2 3 4 4
285 334 358 5 6 7 6 5 6 7 7 6 4 2 1 358 356 354 352 348 346 344 345 346 347 348 349 349 349 349 349 350 350 352 353 355 357 359 1 2 4 5 6 7
278 308 333 347 354 358 358 359 359 0 2 3 3 2 1 359 356 355 353 350 347 346 346 347 348 349 350 350 351 351 351 351 352 353 355 356 358 0 2 4 5 6 8 9
272 292 313 327 337 343 348 353 355 356 357 360 360 360 360 359 357 356 354 351 348 347 347 348 349 350 351 352 352 352 352 352 353 355 356 358 359 1 4 5 7 8 9 11
269 283 297 311 323 334 340 344 348 353 353 356 357 357 357 357 357 356 354 352 350 348 347 348 350 351 352 353 354 353 353 354 355 356 357 359 0 2 4 6 8 9 11 12
266 278 291 303 314 325 330 336 342 347 350 352 354 355 355 355 355 355 354 353 351 348 348 348 350 351 353 354 355 354 354 355 356 358 358 359 1 3 5 7 9 11 12 13
263 273 286 298 309 320 326 330 336 340 345 349 351 352 353 353 354 354 353 353 351 349 348 349 350 352 353 355 355 355 356 357 358 359 359 360 2 4 6 8 10 12 13 14
262 269 280 293 304 312 319 324 330 337 342 344 347 349 350 351 352 352 352 352 351 349 348 349 350 352 353 355 356 356 356 358 359 360 360 1 3 5 7 9 11 12 14 15
262 268 276 287 299 306 313 318 324 331 336 339 343 345 347 348 349 351 351 351 351 349 348 348 350 351 353 355 356 356 357 358 359 0 1 2 3 5 8 9 11 13 15 16
261 267 273 283 294 300 306 312 317 324 330 335 338 342 344 346 347 348 349 350 350 349 348 348 349 351 352 355 356 357 357 358 359 0 1 2 3 5 8 10 11 13 15 16
260 265 272 279 288 293 301 307 312 319 324 330 334 338 342 343 345 346 348 348 349 349 348 347 348 350 352 354 356 357 358 358 359 0 1 2 3 5 7 10 11 13 15 16
259 264 271 277 282 286 294 301 307 313 319 324 330 334 338 341 342 343 345 347 347 348 347 347 347 349 351 353 356 357 358 359 360 1 1 2 2 3 6 8 11 13 14 15
258 264 270 275 280 283 290 296 302 308 313 319 325 330 334 337 339 341 342 344 346 347 347 346 346 347 349 352 355 357 358 359 360 1 1 2 2 3 4 6 8 11 13 15
Height
5886 5885 5882 5880 5878 5876 5873 5871 5869 5866 5863 5861 5859 5855 5851 5846 5842 5837 5832 5825 5818 5810 5801 5792 5782 5771 5760 5747 5733 5719 5703 5687 5671 5654 5636 5618 5599 5580 5563 5545 5529 5515 5502 5491
5886 5883 5882 5879 5877 5875 5872 5870 5867 5865 5862 5859 5856 5852 5847 5843 5838 5833 5827 5819 5812 5803 5794 5784 5774 5763 5750 5737 5722 5707 5691 5675 5657 5639 5620 5601 5583 5565 5548 5531 5514 5499 5486 5474
5884 5883 5881 5879 5876 5874 5872 5869 5866 5863 5860 5856 5854 5850 5844 5839 5833 5827 5821 5813 5805 5796 5786 5777 5766 5754 5741 5727 5711 5696 5679 5662 5643 5624 5605 5587 5570 5553 5536 5520 5503 5487 5473 5460
5883 5882 5880 5878 5876 5873 5871 5868 5864 5861 5857 5853 5849 5846 5840 5834 5827 5821 5814 5806 5798 5789 5779 5769 5757 5745 5731 5716 5700 5684 5667 5648 5629 5609 5590 5573 5556 5540 5522 5505 5489 5473 5459 5445
5883 5881 5879 5877 5875 5872 5869 5866 5862 5858 5854 5850 5845 5840 5836 5829 5821 5814 5807 5799 5791 5781 5771 5761 5749 5736 5721 5706 5690 5673 5654 5635 5616 5596 5578 5560 5543 5525 5508 5491 5476 5461 5446 5431
5882 5880 5878 5876 5873 5870 5867 5864 5861 5856 5852 5847 5841 5835 5829 5822 5816 5809 5801 5793 5783 5774 5764 5753 5741 5727 5712 5697 5680 5662 5643 5624 5605 5585 5567 5549 5532 5514 5497 5480 5465 5449 5434 5416
5881 5879 5877 5875 5872 5869 5865 5862 5858 5853 5848 5843 5836 5830 5825 5818 5811 5803 5795 5786 5777 5768 5757 5746 5733 5719 5704 5687 5670 5652 5634 5615 5595 5576 5557 5538 5520 5502 5484 5467 5451 5435 5418 5398
5879 5879 5876 5874 5871 5868 5863 5859 5854 5849 5844 5840 5833 5827 5822 5814 5806 5797 5789 5781 5771 5761 5751 5739 5726 5711 5696 5679 5661 5644 5625 5606 5587 5567 5548 5529 5511 5492 5474 5456 5438 5420 5401 5379
5878 5878 5875 5872 5870 5866 5862 5857 5852 5846 5841 5837 5830 5823 5817 5809 5801 5793 5784 5775 5765 5755 5744 5732 5719 5704 5688 5671 5653 5636 5617 5598 5578 5559 5540 5522 5504 5485 5467 5449 5430 5410 5388 5365
5878 5876 5874 5872 5869 5865 5861 5856 5850 5843 5836 5831 5827 5819 5813 5805 5797 5789 5779 5769 5759 5749 5738 5725 5712 5696 5680 5663 5646 5628 5609 5589 5570 5551 5533 5515 5497 5479 5461 5443 5424 5403 5381 5358
5877 5876 5874 5871 5867 5864 5860 5855 5849 5843 5836 5829 5823 5820 5811 5802 5793 5784 5774 5764 5754 5743 5731 5719 5704 5689 5672 5656 5639 5621 5602 5583 5564 5545 5527 5510 5493 5475 5456 5438 5419 5398 5377 5355
5876 5875 5872 5870 5866 5862 5857 5853 5848 5843 5837 5829 5823 5819 5808 5799 5789 5779 5770 5759 5748 5737 5725 5712 5698 5682 5666 5650 5633 5615 5596 5577 5559 5541 5523 5506 5489 5472 5454 5436 5417 5396 5375 5354
5875 5874 5871 5868 5866 5862 5857 5852 5847 5842 5835 5828 5821 5818 5805 5796 5785 5775 5765 5754 5742 5731 5719 5706 5692 5676 5660 5644 5627 5610 5591 5572 5554 5537 5520 5504 5487 5470 5453 5435 5416 5396 5376 5355
5874 5872 5871 5868 5864 5860 5855 5851 5845 5839 5833 5827 5820 5812 5803 5792 5781 5771 5759 5748 5737 5725 5713 5700 5686 5671 5655 5639 5622 5605 5587 5568 5551 5534 5518 5502 5486 5469 5452 5434 5416 5398 5378 5358
5872 5870 5868 5865 5862 5858 5854 5849 5843 5837 5831 5824 5817 5808 5799 5789 5778 5767 5755 5744 5732 5720 5708 5695 5681 5666 5650 5634 5617 5600 5583 5565 5548 5532 5516 5501 5485 5468 5451 5434 5417 5399 5381 5362
5869 5868 5865 5863 5860 5856 5852 5848 5842 5835 5828 5821 5813 5805 5796 5786 5775 5763 5751 5739 5728 5715 5703 5690 5676 5661 5646 5630 5613 5597 5580 5564 5547 5531 5515 5500 5485 5469 5453 5436 5419 5402 5385 5367
5866 5865 5863 5860 5857 5854 5851 5846 5840 5833 5826 5818 5810 5802 5792 5783 5771 5759 5747 5736 5723 5711 5699 5686 5672 5657 5642 5626 5610 5595 5579 5562 5546 5530 5514 5500 5485 5470 5454 5438 5422 5406 5390 5372
5863 5861 5859 5857 5855 5851 5849 5842 5837 5831 5823 5815 5807 5798 5789 5779 5768 5756 5744 5732 5719 5707 5695 5682 5669 5654 5639 5623 5608 5593 5577 5561 5545 5529 5514 5500 5486 5471 5456 5441 5426 5410 5394 5378
5859 5857 5855 5853 5850 5847 5844 5838 5831 5826 5820 5812 5803 5795 5785 5775 5764 5752 5741 5728 5716 5703 5691 5679 5665 5651 5636 5621 5606 5591 5576 5560 5544 5529 5514 5501 5488 5474 5459 5444 5430 5415 5400 5385
5854 5852 5851 5848 5844 5841 5839 5833 5826 5821 5814 5807 5798 5790 5781 5771 5761 5750 5737 5725 5712 5700 5688 5675 5662 5648 5634 5619 5604 5590 5575 5560 5544 5530 5516 5503 5489 5475 5461 5447 5433 5419 5405 5391
5848 5847 5845 5842 5838 5836 5833 5827 5821 5816 5810 5802 5794 5786 5777 5768 5758 5747 5734 5722 5709 5697 5684 5672 5659 5646 5632 5617 5603 5589 5575 5560 5545 5531 5517 5504 5491 5477 5464 5450 5437 5423 5409 5395
5841 5841 5839 5837 5834 5832 5827 5821 5816 5812 5805 5798 5790 5782 5774 5764 5754 5743 5731 5719 5706 5694 5681 5669 5657 5644 5630 5616 5602 5588 5575 5560 5545 5532 5518 5506 5493 5480 5467 5454 5441 5429 5416 5403
5834 5834 5833 5832 5831 5825 5821 5816 5811 5806 5800 5793 5786 5778 5770 5760 5750 5740 5728 5716 5704 5691 5679 5666 5654 5642 5628 5615 5601 5588 5574 5559 5545 5531 5519 5507 5495 5483 5471 5459 5447 5435 5423 5411
5826 5826 5825 5825 5825 5819 5814 5810 5805 5800 5794 5788 5781 5774 5765 5756 5747 5736 5725 5713 5701 5688 5676 5664 5652 5640 5627 5614 5600 5587 5573 5559 5545 5532 5519 5507 5496 5485 5474 5463 5452 5440 5429 5418
5818 5818 5817 5816 5816 5812 5810 5804 5799 5794 5788 5782 5776 5768 5760 5752 5743 5733 5722 5710 5698 5686 5673 5661 5649 5638 5625 5613 5599 5586 5573 5560 5546 5533 5520 5508 5497 5486 5475 5466 5456 5445 5433 5421
5811 5811 5809 5808 5806 5802 5803 5798 5792 5787 5781 5776 5769 5762 5755 5747 5738 5729 5718 5707 5695 5683 5671 5659 5647 5636 5624 5612 5599 5586 5573 5560 5547 5534 5522 5510 5499 5488 5478 5467 5456 5446 5437 5426